Time,TemperatureF,DewpointF,PressureIn,WindDirection,WindDirectionDegrees,WindSpeedMPH,WindSpeedGustMPH,Humidity,HourlyPrecipIn,Conditions,Clouds,dailyrainin,SoftwareType,DateUTC
2013-01-14 00:10:00,44.5,44.5,29.89,WSW,253,1.0,3.0,100,0.00,,,0.00,Wunderground v.1.15,2013-01-14 05:10:00,
2013-01-14 00:20:00,44.5,44.5,29.88,East,89,2.0,2.0,100,0.00,,,0.00,Wunderground v.1.15,2013-01-14 05:20:00,
2013-01-14 00:30:00,44.6,44.6,29.88,South,181,2.0,4.0,100,0.00,,,0.00,Wunderground v.1.15,2013-01-14 05:30:00,
2013-01-14 00:40:00,44.8,44.8,29.88,SW,218,2.0,2.0,100,0.00,,,0.00,Wunderground v.1.15,2013-01-14 05:40:00,
2013-01-14 00:50:00,44.8,44.8,29.87,SW,231,2.0,2.0,100,0.00,,,0.00,Wunderground v.1.15,2013-01-14 05:50:00,
2013-01-14 01:00:00,45.1,45.1,29.87,WSW,245,3.0,5.0,100,0.00,,,0.00,Wunderground v.1.15,2013-01-14 06:00:00,
2013-01-14 01:10:00,45.1,45.1,29.89,WSW,241,4.0,4.0,100,0.00,,,0.00,Wunderground v.1.15,2013-01-14 06:10:00,
2013-01-14 01:20:00,45.1,45.1,29.88,SSW,210,4.0,4.0,100,0.00,,,0.00,Wunderground v.1.15,2013-01-14 06:20:00,
2013-01-14 01:30:00,45.2,45.2,29.88,SW,233,4.0,4.0,100,0.00,,,0.00,Wunderground v.1.15,2013-01-14 06:30:00,
2013-01-14 01:40:00,45.1,45.1,29.89,SW,226,4.0,4.0,100,0.00,,,0.00,Wunderground v.1.15,2013-01-14 06:40:00,
2013-01-14 01:50:00,44.9,44.9,29.89,SW,221,3.0,6.0,100,0.00,,,0.00,Wunderground v.1.15,2013-01-14 06:50:00,
2013-01-14 02:00:00,45.1,45.1,29.89,WSW,248,4.0,4.0,100,0.00,,,0.00,Wunderground v.1.15,2013-01-14 07:00:00,
2013-01-14 02:10:00,45.2,45.2,29.89,WSW,239,3.0,3.0,100,0.00,,,0.00,Wunderground v.1.15,2013-01-14 07:10:00,
2013-01-14 02:20:00,45.2,45.2,29.89,SW,229,3.0,3.0,100,0.00,,,0.00,Wunderground v.1.15,2013-01-14 07:20:00,
2013-01-14 02:30:00,45.1,45.1,29.89,WSW,239,3.0,3.0,100,0.00,,,0.00,Wunderground v.1.15,2013-01-14 07:30:00,
2013-01-14 02:40:00,44.9,44.9,29.89,West,260,3.0,6.0,100,0.00,,,0.00,Wunderground v.1.15,2013-01-14 07:40:00,
2013-01-14 02:50:00,44.9,44.9,29.88,SSW,205,3.0,3.0,100,0.00,,,0.00,Wunderground v.1.15,2013-01-14 07:50:00,
2013-01-14 03:00:00,44.8,44.8,29.88,SW,222,2.0,2.0,100,0.00,,,0.00,Wunderground v.1.15,2013-01-14 08:00:00,
2013-01-14 03:10:00,44.6,44.6,29.88,SW,226,1.0,1.0,100,0.00,,,0.00,Wunderground v.1.15,2013-01-14 08:10:00,
2013-01-14 03:20:00,44.6,44.6,29.87,SW,224,2.0,2.0,100,0.00,,,0.00,Wunderground v.1.15,2013-01-14 08:20:00,
2013-01-14 03:30:00,44.6,44.6,29.87,SW,235,3.0,3.0,100,0.00,,,0.00,Wunderground v.1.15,2013-01-14 08:30:00,
2013-01-14 03:40:00,44.5,44.5,29.86,SW,215,1.0,1.0,100,0.00,,,0.00,Wunderground v.1.15,2013-01-14 08:40:00,
2013-01-14 03:50:00,44.5,44.5,29.84,SSE,163,0.0,0.0,100,0.00,,,0.00,Wunderground v.1.15,2013-01-14 08:50:00,
2013-01-14 04:00:00,44.3,44.3,29.84,SSE,163,0.0,1.0,100,0.00,,,0.00,Wunderground v.1.15,2013-01-14 09:00:00,
2013-01-14 04:10:00,44.3,44.3,29.84,SE,134,1.0,4.0,100,0.00,,,0.00,Wunderground v.1.15,2013-01-14 09:10:00,
2013-01-14 04:20:00,44.2,44.2,29.84,SE,134,1.0,1.0,100,0.00,,,0.00,Wunderground v.1.15,2013-01-14 09:20:00,
2013-01-14 04:30:00,43.9,43.9,29.84,South,184,0.0,0.0,100,0.00,,,0.00,Wunderground v.1.15,2013-01-14 09:30:00,
2013-01-14 04:40:00,44.1,44.1,29.83,SSW,212,1.0,1.0,100,0.00,,,0.00,Wunderground v.1.15,2013-01-14 09:40:00,
2013-01-14 04:50:00,43.9,43.9,29.82,SW,214,0.0,1.0,100,0.00,,,0.00,Wunderground v.1.15,2013-01-14 09:50:00,
2013-01-14 05:00:00,44.1,44.1,29.82,SW,227,2.0,2.0,100,0.00,,,0.00,Wunderground v.1.15,2013-01-14 10:00:00,
2013-01-14 05:10:00,44.2,44.2,29.83,SW,225,3.0,3.0,100,0.00,,,0.00,Wunderground v.1.15,2013-01-14 10:10:00,
2013-01-14 05:20:00,44.1,44.1,29.83,SW,224,2.0,2.0,100,0.00,,,0.00,Wunderground v.1.15,2013-01-14 10:20:00,
2013-01-14 05:30:00,43.8,43.8,29.83,NE,50,3.0,3.0,100,0.00,,,0.00,Wunderground v.1.15,2013-01-14 10:30:00,
2013-01-14 05:40:00,43.8,43.8,29.81,SW,214,3.0,3.0,100,0.00,,,0.00,Wunderground v.1.15,2013-01-14 10:40:00,
2013-01-14 05:50:00,43.6,43.6,29.80,SSE,148,1.0,1.0,100,0.00,,,0.00,Wunderground v.1.15,2013-01-14 10:50:00,
2013-01-14 06:00:00,43.6,43.6,29.80,SSW,212,3.0,3.0,100,0.00,,,0.00,Wunderground v.1.15,2013-01-14 11:00:00,
2013-01-14 06:10:00,43.8,43.8,29.81,South,182,2.0,2.0,100,0.00,,,0.00,Wunderground v.1.15,2013-01-14 11:10:00,
2013-01-14 06:20:00,43.9,43.9,29.79,SSW,195,2.0,5.0,100,0.00,,,0.00,Wunderground v.1.15,2013-01-14 11:20:00,
2013-01-14 06:30:00,44.2,44.2,29.79,SSW,200,4.0,4.0,100,0.00,,,0.00,Wunderground v.1.15,2013-01-14 11:30:00,
2013-01-14 06:40:00,44.2,44.2,29.81,SW,219,4.0,4.0,100,0.00,,,0.00,Wunderground v.1.15,2013-01-14 11:40:00,
2013-01-14 06:50:00,44.3,44.3,29.79,SSW,213,4.0,5.0,100,0.00,,,0.00,Wunderground v.1.15,2013-01-14 11:50:00,
2013-01-14 07:00:00,44.6,44.6,29.79,SW,225,7.0,7.0,100,0.00,,,0.00,Wunderground v.1.15,2013-01-14 12:00:00,
2013-01-14 07:10:00,44.9,44.9,29.82,SSW,212,8.0,8.0,100,0.00,,,0.00,Wunderground v.1.15,2013-01-14 12:10:00,
2013-01-14 07:20:00,44.5,44.5,29.81,SW,229,5.0,5.0,100,0.00,,,0.00,Wunderground v.1.15,2013-01-14 12:20:00,
2013-01-14 07:30:00,45.1,45.1,29.81,SW,231,8.0,11.0,100,0.00,,,0.00,Wunderground v.1.15,2013-01-14 12:30:00,
2013-01-14 07:40:00,44.6,44.6,29.83,SW,214,5.0,5.0,100,0.00,,,0.00,Wunderground v.1.15,2013-01-14 12:40:00,
2013-01-14 07:50:00,44.3,44.3,29.81,SW,214,5.0,9.0,100,0.00,,,0.00,Wunderground v.1.15,2013-01-14 12:50:00,
2013-01-14 08:00:00,44.9,44.9,29.81,SSW,193,7.0,10.0,100,0.00,,,0.00,Wunderground v.1.15,2013-01-14 13:00:00,
2013-01-14 08:10:00,45.1,45.1,29.82,SW,215,6.0,6.0,100,0.00,,,0.00,Wunderground v.1.15,2013-01-14 13:10:00,
2013-01-14 08:20:00,45.2,45.2,29.81,SW,214,7.0,7.0,100,0.00,,,0.00,Wunderground v.1.15,2013-01-14 13:20:00,
2013-01-14 08:30:00,45.4,45.4,29.81,SSW,212,6.0,6.0,100,0.00,,,0.00,Wunderground v.1.15,2013-01-14 13:30:00,
2013-01-14 08:40:00,45.4,45.4,29.81,West,266,6.0,12.0,100,0.00,,,0.00,Wunderground v.1.15,2013-01-14 13:40:00,
2013-01-14 08:50:00,45.7,45.7,29.80,SSW,198,7.0,7.0,100,0.00,,,0.00,Wunderground v.1.15,2013-01-14 13:50:00,
2013-01-14 09:00:00,45.5,45.5,29.80,SW,217,6.0,11.0,100,0.00,,,0.00,Wunderground v.1.15,2013-01-14 14:00:00,
2013-01-14 09:10:00,45.7,45.7,29.80,SW,217,8.0,9.0,100,0.00,,,0.00,Wunderground v.1.15,2013-01-14 14:10:00,
2013-01-14 09:20:00,45.7,45.7,29.79,SW,231,7.0,10.0,100,0.00,,,0.00,Wunderground v.1.15,2013-01-14 14:20:00,
2013-01-14 09:30:00,46.0,46.0,29.79,WSW,245,8.0,8.0,100,0.00,,,0.00,Wunderground v.1.15,2013-01-14 14:30:00,
2013-01-14 09:40:00,46.1,46.1,29.81,SW,224,11.0,11.0,100,0.00,,,0.00,Wunderground v.1.15,2013-01-14 14:40:00,
2013-01-14 09:50:00,46.2,46.2,29.83,West,269,12.0,16.0,100,0.00,,,0.00,Wunderground v.1.15,2013-01-14 14:50:00,
2013-01-14 10:00:00,46.0,46.0,29.83,SW,236,11.0,11.0,100,0.00,,,0.00,Wunderground v.1.15,2013-01-14 15:00:00,
2013-01-14 10:10:00,45.8,45.8,29.83,West,269,11.0,11.0,100,0.00,,,0.00,Wunderground v.1.15,2013-01-14 15:10:00,
2013-01-14 10:20:00,45.8,45.8,29.82,SW,225,10.0,10.0,100,0.00,,,0.00,Wunderground v.1.15,2013-01-14 15:20:00,
2013-01-14 10:30:00,46.0,46.0,29.82,SW,230,8.0,8.0,100,0.00,,,0.00,Wunderground v.1.15,2013-01-14 15:30:00,
2013-01-14 10:40:00,46.1,46.1,29.83,WSW,252,7.0,8.0,100,0.00,,,0.00,Wunderground v.1.15,2013-01-14 15:40:00,
2013-01-14 10:50:00,46.0,46.0,29.82,SW,231,6.0,6.0,100,0.00,,,0.00,Wunderground v.1.15,2013-01-14 15:50:00,
2013-01-14 11:00:00,45.8,45.8,29.82,WSW,249,6.0,6.0,100,0.00,,,0.00,Wunderground v.1.15,2013-01-14 16:00:00,
2013-01-14 11:10:00,45.8,45.8,29.83,WSW,239,5.0,6.0,100,0.00,,,0.00,Wunderground v.1.15,2013-01-14 16:10:00,
2013-01-14 11:20:00,45.7,45.7,29.82,WSW,237,4.0,4.0,100,0.00,,,0.00,Wunderground v.1.15,2013-01-14 16:20:00,
2013-01-14 11:30:00,46.0,46.0,29.82,SW,227,4.0,6.0,100,0.00,,,0.00,Wunderground v.1.15,2013-01-14 16:30:00,
2013-01-14 11:40:00,46.2,46.2,29.82,WSW,250,5.0,5.0,100,0.00,,,0.00,Wunderground v.1.15,2013-01-14 16:40:00,
2013-01-14 11:50:00,46.4,46.4,29.83,West,271,4.0,6.0,100,0.00,,,0.00,Wunderground v.1.15,2013-01-14 16:50:00,
2013-01-14 12:00:00,46.5,46.5,29.83,WSW,254,2.0,2.0,100,0.00,,,0.00,Wunderground v.1.15,2013-01-14 17:00:00,
2013-01-14 12:10:00,46.5,46.5,29.83,SW,236,3.0,3.0,100,0.00,,,0.00,Wunderground v.1.15,2013-01-14 17:10:00,
2013-01-14 12:20:00,46.5,46.5,29.83,SW,233,3.0,3.0,100,0.00,,,0.00,Wunderground v.1.15,2013-01-14 17:20:00,
2013-01-14 12:30:00,47.0,47.0,29.83,SSW,204,2.0,3.0,100,0.00,,,0.00,Wunderground v.1.15,2013-01-14 17:30:00,
2013-01-14 12:40:00,47.4,47.4,29.84,WSW,255,3.0,9.0,100,0.00,,,0.00,Wunderground v.1.15,2013-01-14 17:40:00,
2013-01-14 12:50:00,48.2,48.2,29.84,WSW,257,6.0,6.0,100,0.00,,,0.00,Wunderground v.1.15,2013-01-14 17:50:00,
2013-01-14 13:00:00,48.6,48.6,29.84,WSW,240,6.0,6.0,100,0.00,,,0.00,Wunderground v.1.15,2013-01-14 18:00:00,
2013-01-14 13:10:00,49.2,49.2,29.84,SW,215,7.0,7.0,100,0.00,,,0.00,Wunderground v.1.15,2013-01-14 18:10:00,
2013-01-14 13:20:00,50.4,49.0,29.85,WSW,253,8.0,9.0,95,0.00,,,0.00,Wunderground v.1.15,2013-01-14 18:20:00,
2013-01-14 13:30:00,51.0,46.6,29.85,WNW,283,9.0,9.0,85,0.00,,,0.00,Wunderground v.1.15,2013-01-14 18:30:00,
2013-01-14 13:40:00,51.1,46.1,29.87,West,278,8.0,9.0,83,0.00,,,0.00,Wunderground v.1.15,2013-01-14 18:40:00,
2013-01-14 13:50:00,51.7,46.1,29.88,West,278,7.0,7.0,81,0.00,,,0.00,Wunderground v.1.15,2013-01-14 18:50:00,
2013-01-14 14:00:00,52.3,46.3,29.88,West,278,7.0,8.0,80,0.00,,,0.00,Wunderground v.1.15,2013-01-14 19:00:00,
2013-01-14 14:10:00,52.8,46.5,29.90,West,281,8.0,14.0,79,0.00,,,0.00,Wunderground v.1.15,2013-01-14 19:10:00,
2013-01-14 14:20:00,52.6,46.3,29.91,WNW,288,12.0,12.0,79,0.00,,,0.00,Wunderground v.1.15,2013-01-14 19:20:00,
2013-01-14 14:30:00,51.9,44.6,29.91,WSW,248,11.0,11.0,76,0.00,,,0.00,Wunderground v.1.15,2013-01-14 19:30:00,
2013-01-14 14:40:00,51.1,42.0,29.92,West,269,11.0,16.0,71,0.00,,,0.00,Wunderground v.1.15,2013-01-14 19:40:00,
2013-01-14 14:50:00,50.4,40.6,29.93,WNW,288,12.0,14.0,69,0.00,,,0.00,Wunderground v.1.15,2013-01-14 19:50:00,
2013-01-14 15:00:00,50.1,39.9,29.93,West,281,10.0,10.0,68,0.00,,,0.00,Wunderground v.1.15,2013-01-14 20:00:00,
2013-01-14 15:10:00,49.9,39.0,29.94,West,261,8.0,9.0,66,0.00,,,0.00,Wunderground v.1.15,2013-01-14 20:10:00,
2013-01-14 15:20:00,49.6,36.7,29.96,West,276,8.0,11.0,61,0.00,,,0.00,Wunderground v.1.15,2013-01-14 20:20:00,
2013-01-14 15:30:00,49.5,37.0,29.96,West,264,9.0,15.0,62,0.00,,,0.00,Wunderground v.1.15,2013-01-14 20:30:00,
2013-01-14 15:40:00,48.6,35.7,29.97,WSW,251,9.0,11.0,61,0.00,,,0.00,Wunderground v.1.15,2013-01-14 20:40:00,
2013-01-14 15:50:00,47.9,35.1,29.99,West,259,8.0,10.0,61,0.00,,,0.00,Wunderground v.1.15,2013-01-14 20:50:00,
2013-01-14 16:00:00,47.0,33.8,29.99,West,274,10.0,10.0,60,0.00,,,0.00,Wunderground v.1.15,2013-01-14 21:00:00,
2013-01-14 16:10:00,46.1,33.0,29.99,WNW,287,9.0,10.0,60,0.00,,,0.00,Wunderground v.1.15,2013-01-14 21:10:00,
2013-01-14 16:20:00,45.2,31.7,30.01,West,269,8.0,10.0,59,0.00,,,0.00,Wunderground v.1.15,2013-01-14 21:20:00,
2013-01-14 16:30:00,44.3,30.0,30.01,West,259,10.0,12.0,57,0.00,,,0.00,Wunderground v.1.15,2013-01-14 21:30:00,
2013-01-14 16:40:00,43.8,29.5,30.02,WNW,284,8.0,9.0,57,0.00,,,0.00,Wunderground v.1.15,2013-01-14 21:40:00,
2013-01-14 16:50:00,43.1,28.9,30.03,West,274,7.0,7.0,57,0.00,,,0.00,Wunderground v.1.15,2013-01-14 21:50:00,
2013-01-14 17:00:00,42.5,27.9,30.03,West,281,9.0,9.0,56,0.00,,,0.00,Wunderground v.1.15,2013-01-14 22:00:00,
2013-01-14 17:10:00,41.9,27.3,30.04,WNW,295,10.0,10.0,56,0.00,,,0.00,Wunderground v.1.15,2013-01-14 22:10:00,
2013-01-14 17:20:00,41.3,26.3,30.05,West,271,8.0,10.0,55,0.00,,,0.00,Wunderground v.1.15,2013-01-14 22:20:00,
2013-01-14 17:30:00,40.9,26.8,30.05,NW,310,8.0,11.0,57,0.00,,,0.00,Wunderground v.1.15,2013-01-14 22:30:00,
2013-01-14 17:40:00,40.8,26.7,30.05,West,272,9.0,14.0,57,0.00,,,0.00,Wunderground v.1.15,2013-01-14 22:40:00,
2013-01-14 17:50:00,40.3,26.7,30.06,West,263,9.0,13.0,58,0.00,,,0.00,Wunderground v.1.15,2013-01-14 22:50:00,
2013-01-14 18:00:00,39.8,26.6,30.06,WNW,295,10.0,10.0,59,0.00,,,0.00,Wunderground v.1.15,2013-01-14 23:00:00,
2013-01-14 18:10:00,39.6,26.8,30.06,WNW,291,9.0,9.0,60,0.00,,,0.00,Wunderground v.1.15,2013-01-14 23:10:00,
2013-01-14 18:20:00,39.5,26.3,30.06,NNW,333,5.0,5.0,59,0.00,,,0.00,Wunderground v.1.15,2013-01-14 23:20:00,
2013-01-14 18:30:00,39.2,26.5,30.06,WNW,300,6.0,6.0,60,0.00,,,0.00,Wunderground v.1.15,2013-01-14 23:30:00,
2013-01-14 18:40:00,38.8,26.1,30.07,WNW,282,7.0,12.0,60,0.00,,,0.00,Wunderground v.1.15,2013-01-14 23:40:00,
2013-01-14 18:50:00,38.6,25.5,30.07,NNW,347,4.0,4.0,59,0.00,,,0.00,Wunderground v.1.15,2013-01-14 23:50:00,
2013-01-14 19:00:00,38.2,25.5,30.07,NNW,338,3.0,3.0,60,0.00,,,0.00,Wunderground v.1.15,2013-01-15 00:00:00,
2013-01-14 19:10:00,37.9,25.2,30.08,West,266,5.0,5.0,60,0.00,,,0.00,Wunderground v.1.15,2013-01-15 00:10:00,
2013-01-14 19:20:00,38.0,24.5,30.08,NNW,340,3.0,3.0,58,0.00,,,0.00,Wunderground v.1.15,2013-01-15 00:20:00,
2013-01-14 19:30:00,37.8,24.7,30.08,West,280,3.0,3.0,59,0.00,,,0.00,Wunderground v.1.15,2013-01-15 00:30:00,
2013-01-14 19:40:00,37.0,24.8,30.09,West,269,6.0,6.0,61,0.00,,,0.00,Wunderground v.1.15,2013-01-15 00:40:00,
2013-01-14 19:50:00,36.9,24.7,30.12,WNW,295,5.0,5.0,61,0.00,,,0.00,Wunderground v.1.15,2013-01-15 00:50:00,
2013-01-14 20:00:00,37.0,24.8,30.12,West,266,6.0,6.0,61,0.00,,,0.00,Wunderground v.1.15,2013-01-15 01:00:00,
2013-01-14 20:10:00,36.3,24.5,30.12,West,279,7.0,7.0,62,0.00,,,0.00,Wunderground v.1.15,2013-01-15 01:10:00,
2013-01-14 20:20:00,36.3,24.5,30.12,West,272,6.0,6.0,62,0.00,,,0.00,Wunderground v.1.15,2013-01-15 01:20:00,
2013-01-14 20:30:00,36.2,24.4,30.12,West,274,4.0,8.0,62,0.00,,,0.00,Wunderground v.1.15,2013-01-15 01:30:00,
2013-01-14 20:40:00,36.3,24.5,30.10,WNW,284,7.0,7.0,62,0.00,,,0.00,Wunderground v.1.15,2013-01-15 01:40:00,
2013-01-14 20:50:00,35.9,24.5,30.12,WNW,294,5.0,5.0,63,0.00,,,0.00,Wunderground v.1.15,2013-01-15 01:50:00,
2013-01-14 21:00:00,36.0,23.8,30.12,WNW,285,4.0,6.0,61,0.00,,,0.00,Wunderground v.1.15,2013-01-15 02:00:00,
2013-01-14 21:10:00,36.0,23.8,30.13,West,276,6.0,6.0,61,0.00,,,0.00,Wunderground v.1.15,2013-01-15 02:10:00,
2013-01-14 21:20:00,36.0,24.2,30.13,WNW,285,5.0,6.0,62,0.00,,,0.00,Wunderground v.1.15,2013-01-15 02:20:00,
2013-01-14 21:30:00,35.9,24.1,30.13,West,269,5.0,5.0,62,0.00,,,0.00,Wunderground v.1.15,2013-01-15 02:30:00,
2013-01-14 21:40:00,35.6,23.9,30.14,WNW,295,5.0,7.0,62,0.00,,,0.00,Wunderground v.1.15,2013-01-15 02:40:00,
2013-01-14 21:50:00,35.6,23.9,30.13,NW,317,5.0,10.0,62,0.00,,,0.00,Wunderground v.1.15,2013-01-15 02:50:00,
2013-01-14 22:00:00,35.5,24.1,30.13,WNW,300,6.0,6.0,63,0.00,,,0.00,Wunderground v.1.15,2013-01-15 03:00:00,
2013-01-14 22:10:00,35.3,24.0,30.12,WNW,299,7.0,8.0,63,0.00,,,0.00,Wunderground v.1.15,2013-01-15 03:10:00,
2013-01-14 22:20:00,35.2,23.9,30.12,WNW,302,7.0,10.0,63,0.00,,,0.00,Wunderground v.1.15,2013-01-15 03:20:00,
2013-01-14 22:30:00,35.0,23.7,30.12,NW,306,7.0,10.0,63,0.00,,,0.00,Wunderground v.1.15,2013-01-15 03:30:00,
2013-01-14 22:40:00,34.9,23.6,30.11,West,279,6.0,7.0,63,0.00,,,0.00,Wunderground v.1.15,2013-01-15 03:40:00,
2013-01-14 22:50:00,35.2,22.7,30.12,NW,311,7.0,7.0,60,0.00,,,0.00,Wunderground v.1.15,2013-01-15 03:50:00,
2013-01-14 23:00:00,35.2,23.5,30.12,West,276,7.0,7.0,62,0.00,,,0.00,Wunderground v.1.15,2013-01-15 04:00:00,
2013-01-14 23:10:00,34.9,23.2,30.12,WNW,285,5.0,5.0,62,0.00,,,0.00,Wunderground v.1.15,2013-01-15 04:10:00,
2013-01-14 23:20:00,34.7,23.0,30.14,WNW,294,4.0,9.0,62,0.00,,,0.00,Wunderground v.1.15,2013-01-15 04:20:00,
2013-01-14 23:30:00,34.6,23.3,30.14,WNW,290,6.0,6.0,63,0.00,,,0.00,Wunderground v.1.15,2013-01-15 04:30:00,
2013-01-14 23:40:00,34.6,23.3,30.14,WNW,284,4.0,4.0,63,0.00,,,0.00,Wunderground v.1.15,2013-01-15 04:40:00,
2013-01-14 23:50:00,34.3,23.4,30.14,WNW,291,5.0,5.0,64,0.00,,,0.00,Wunderground v.1.15,2013-01-15 04:50:00,